Location: ???????
(55.3754°N, 39.3545°E)
Time: 17:30:27
(UTC+00:00)

Helios 1B rocket - Pass Details

Date: 14 April 2026
Orbit: 462 x 468 km, 98.2° (Epoch: 16 May)

Event Time Altitude Azimuth Distance (km) Brightness Sun altitude
Exits shadow 19:53:04 69° 302° (WNW) 510 2.2 -22.3°
Drops below altitude 10° 19:56:19 10° 342° (NNW) 1,650 5.9 -22.5°
Sets 19:58:24 0° 344° (NNW) 2,534 7.2 -22.6°
